Welcome to the New NWS' Forecast!
Most changes are behind the scenes, but click here for differences you might notice.

Regional Weather Roundup (RWR)

Issued by Gray - Portland, ME (GYX)

                            
424 
ASUS41 KGYX 201010
RWRGYX
WEATHER ROUNDUP FOR MAINE AND NEW HAMPSHIRE
NATIONAL WEATHER SERVICE GRAY ME
500 AM EST SAT JAN 20 2018

MEZ002-005-006-010-012-015-018-020-021-024-026-027-029-201100-
MAINE
  
CITY           SKY/WX    TMP DP  RH WIND       PRES   REMARKS
PORTLAND       MOCLDY    31  21  66 S13       29.66F                  
SANFORD        FAIR      29  21  72 VRB5      29.67F                  
BAR HARBOR     CLOUDY    31  27  85 SW6       29.68F                  
WISCASSET      FAIR      31  24  75 SW8       29.65F                  
ROCKLAND       MOCLDY    35  28  75 SW12G17   29.66F                  
FRYEBURG       FAIR      20  20 100 CALM      29.61F                  
LEWISTONAUBURN FAIR      28  22  78 S9        29.61F                  
AUGUSTA        MOCLDY    27  21  78 S6        29.60F                  
WATERVILLE     MOCLDY    27  22  81 VRB5      29.54F                  
BANGOR         CLOUDY    29  22  75 S8        29.63F                  
GREENVILLE     NOT AVBL                                               
MILLINOCKET    CLOUDY    27  22  81 S7        29.57F                  
HOULTON        CLOUDY    27  22  81 S10G20    29.52F WCI  17          
PRESQUE ISLE   CLOUDY    27  21  78 S15       29.48F WCI  15          
FRENCHVILLE    CLOUDY    23  21  92 S15G23    29.37F WCI  10          
CARIBOU        CLOUDY    27  20  75 S14G22    29.44F WCI  16          
$$

NHZ002-005-008-009-011-012-014-201100-
NEW HAMPSHIRE
  
CITY           SKY/WX    TMP DP  RH WIND       PRES   REMARKS
PORTSMOUTH     CLOUDY    32  20  60 SW10      29.68F                  
ROCHESTER      FAIR      29  21  72 VRB3      29.67F                  
NASHUA         FAIR      28  22  78 VRB3      29.71F                  
MANCHESTER     CLOUDY    31  20  63 S10       29.69F                  
CONCORD        FAIR      27  20  75 SE5       29.68F                  
LACONIA        FAIR      27  21  78 SW6       29.65F                  
PLYMOUTH       MOCLDY    20  19  96 CALM      29.65F FOG              
BERLIN         FAIR      20  18  92 CALM      29.54F                  
WHITEFIELD     FAIR      24  22  91 CALM      29.57F                  
JAFFREY        FAIR      28  20  71 SW8       29.68F                  
KEENE          FAIR      20  19  96 CALM      29.72F                  
LEBANON        FAIR      29  21  72 SW5       29.63F                  
MT WASHINGTON  PTCLDY    25  12  58 W78G86      N/A  WCI   1          
$$

VTZ005-007-008-201100-
VERMONT
  
CITY           SKY/WX    TMP DP  RH WIND       PRES   REMARKS
ST JOHNSBURY     N/A     28  22  78 MISG      29.57F                  
MONTPELIER     FAIR      28  23  81 E5        29.58F                  
BURLINGTON     FAIR      35  21  56 S20G26    29.56F                  
$$

MAZ007-012-024-CTZ003-RIZ002-NYZ038-NYZ072-201100-
SOUTHERN NEW ENGLAND AND NY
  
CITY           SKY/WX    TMP DP  RH WIND       PRES   REMARKS
BOSTON         MOCLDY    32  21  64 SW12      29.76F                  
WORCESTER      FAIR      29  18  63 SW12      29.71F WCI  19          
NANTUCKET      FAIR      38  36  92 SW15      29.86F                  
PROVIDENCE     FAIR      36  23  59 SW12      29.81F                  
HARTFORD       MOCLDY    30  21  69 S9        29.77F                  
ALBANY         MOCLDY    28  18  66 S7        29.74F                  
NEW YORK CITY  FAIR      40  19  43 SW12G20   29.88F                  
$$

ANZ081-ANZ082-ANZ150-NHZ014-MEZ023>029-201100-
COASTAL MARINE OBSERVATIONS
  
STATION/POSITION TIME  TEMP    WIND        PRES    WAVE
                       AIR SEA DIR/SP/G            HT/PER
                 (UTC) (F)     (DEG/KT/KT) (MB)    (FT/S)
MOUNT DESERT ROC 1000   38     200/ 27/ 30 1005.1F
MATINICUS ROCK   1000   39     220/ 29/ 32 1004.1F
ISLE OF SHOALS   1000   34     220/ 20/ 21 1005.4F
JEFFREYS LEDGE   0936      43                N/A     5/ 5
GEORGES BANK BUO 0850   43 58              1011.6    7/10
$$

.............KEY..............
   WCI - WIND CHILL
   TC  - TEMPERATURE IN CELSIUS
   VSB - VISIBILITY IN MILES
   HX  - HEAT INDEX
   FAIR- INDICATES FEW OR NO CLOUDS BELOW 12,000 FT, WITH NO 
         SIGNIFICANT WEATHER AND/OR OBSTRUCTIONS TO VISIBILITY.